OMAES LZZI-LZIB

Flight info

Callsign OMAES
Flight time 0h 34m
Altitude 24000
Route MAKAL DCT MAVOR/N0309F230 DCT BERVA
Aircraft TBM9/L-VGDW/C

Departure

Time 2026-04-24 21:10
Airport Žilina-Dolný Hričov Airport (LZZI)

Arrival

Time 2026-04-24 21:45
Airport M. R. Štefánik Airport (LZIB)
Time Latitude Longitude Altitude Speed Heading
2026-04-24 21:07 49.23266 18.61494 1021 ft 0 kts 334°
2026-04-24 21:08 49.23291 18.61475 1022 ft 11 kts 333°
2026-04-24 21:08 49.23341 18.61358 1027 ft 17 kts 243°
2026-04-24 21:09 49.23280 18.61181 1026 ft 21 kts 244°
2026-04-24 21:09 49.23215 18.60970 1025 ft 24 kts 243°
2026-04-24 21:09 49.23137 18.60728 1020 ft 20 kts 242°
2026-04-24 21:09 49.23153 18.60744 1020 ft 26 kts 65°
2026-04-24 21:10 49.23333 18.61322 1028 ft 93 kts 64°
2026-04-24 21:10 49.23675 18.62394 1312 ft 122 kts 64°
2026-04-24 21:10 49.24083 18.63656 1722 ft 142 kts 67°
2026-04-24 21:10 49.24513 18.65142 2092 ft 164 kts 65°
2026-04-24 21:11 49.25021 18.66812 2493 ft 181 kts 64°
2026-04-24 21:11 49.25748 18.68426 2888 ft 191 kts 41°
2026-04-24 21:11 49.26901 18.69483 3268 ft 197 kts 20°
2026-04-24 21:11 49.28272 18.69736 3633 ft 202 kts 355°
2026-04-24 21:12 49.29618 18.69095 4008 ft 205 kts 335°
2026-04-24 21:12 49.30919 18.68133 4399 ft 208 kts 335°
2026-04-24 21:12 49.32129 18.66939 4769 ft 209 kts 313°
2026-04-24 21:12 49.32848 18.64999 5129 ft 212 kts 287°
2026-04-24 21:13 49.32909 18.62740 5494 ft 216 kts 261°
2026-04-24 21:13 49.32538 18.60508 5886 ft 216 kts 261°
2026-04-24 21:13 49.32567 18.58287 6281 ft 212 kts 288°
2026-04-24 21:13 49.33290 18.56330 6674 ft 213 kts 308°
2026-04-24 21:14 49.34154 18.54478 7035 ft 215 kts 300°
2026-04-24 21:14 49.34652 18.52317 7395 ft 216 kts 284°
2026-04-24 21:14 49.34731 18.50000 7761 ft 220 kts 268°
2026-04-24 21:14 49.34357 18.47706 8126 ft 225 kts 251°
2026-04-24 21:15 49.33672 18.45524 8508 ft 227 kts 249°
2026-04-24 21:15 49.32992 18.43342 8890 ft 226 kts 249°
2026-04-24 21:15 49.32318 18.41167 9287 ft 225 kts 249°
2026-04-24 21:15 49.31642 18.39003 9670 ft 224 kts 249°
2026-04-24 21:16 49.30971 18.36857 10057 ft 224 kts 250°
2026-04-24 21:16 49.30300 18.34697 10409 ft 225 kts 250°
2026-04-24 21:16 49.29621 18.32526 10769 ft 227 kts 250°
2026-04-24 21:16 49.28934 18.30335 11125 ft 229 kts 250°
2026-04-24 21:17 49.28244 18.28132 11489 ft 230 kts 251°
2026-04-24 21:17 49.27553 18.25924 11848 ft 230 kts 251°
2026-04-24 21:17 49.26863 18.23722 12226 ft 228 kts 251°
2026-04-24 21:17 49.26172 18.21523 12609 ft 231 kts 251°
2026-04-24 21:18 49.25474 18.19303 12989 ft 232 kts 251°
2026-04-24 21:18 49.24750 18.17120 13369 ft 236 kts 245°
2026-04-24 21:18 49.23688 18.15155 13744 ft 244 kts 232°
2026-04-24 21:18 49.22459 18.13350 14104 ft 244 kts 232°
2026-04-24 21:19 49.21249 18.11535 14451 ft 244 kts 232°
2026-04-24 21:19 49.20034 18.09707 14799 ft 245 kts 232°
2026-04-24 21:19 49.18811 18.07881 15158 ft 246 kts 232°
2026-04-24 21:19 49.17581 18.06050 15520 ft 248 kts 232°
2026-04-24 21:20 49.15170 18.02469 16555 ft 236 kts 232°
2026-04-24 21:20 49.14004 18.00733 17105 ft 232 kts 232°
2026-04-24 21:20 49.12854 17.99021 17673 ft 230 kts 232°
2026-04-24 21:21 49.11712 17.97320 18245 ft 229 kts 232°
2026-04-24 21:21 49.10574 17.95629 18758 ft 228 kts 232°
2026-04-24 21:21 49.09439 17.93945 19268 ft 227 kts 232°
2026-04-24 21:21 49.08309 17.92270 19774 ft 226 kts 232°
2026-04-24 21:22 49.07186 17.90604 20317 ft 225 kts 232°
2026-04-24 21:22 49.06080 17.88966 20842 ft 224 kts 232°
2026-04-24 21:22 49.04966 17.87316 21390 ft 223 kts 232°
2026-04-24 21:22 49.03815 17.85591 21389 ft 248 kts 232°
2026-04-24 21:23 49.02499 17.83598 20901 ft 283 kts 231°
2026-04-24 21:23 49.01028 17.81419 20423 ft 305 kts 230°
2026-04-24 21:23 48.99464 17.79123 19950 ft 318 kts 230°
2026-04-24 21:23 48.97854 17.76752 19439 ft 326 kts 230°
2026-04-24 21:24 48.96213 17.74319 18803 ft 333 kts 230°
2026-04-24 21:24 48.94534 17.71841 18083 ft 339 kts 230°
2026-04-24 21:24 48.92825 17.69348 17302 ft 340 kts 229°
2026-04-24 21:24 48.91122 17.66852 16534 ft 340 kts 229°
2026-04-24 21:25 48.89428 17.64360 15787 ft 338 kts 229°
2026-04-24 21:25 48.87759 17.61910 15065 ft 336 kts 229°
2026-04-24 21:25 48.86078 17.59446 14351 ft 335 kts 229°
2026-04-24 21:25 48.84337 17.57104 13605 ft 336 kts 221°
2026-04-24 21:26 48.82310 17.55337 12800 ft 328 kts 209°
2026-04-24 21:26 48.80214 17.54255 12014 ft 318 kts 198°
2026-04-24 21:26 48.78048 17.53789 11245 ft 312 kts 186°
2026-04-24 21:26 48.75896 17.53828 10511 ft 307 kts 181°
2026-04-24 21:27 48.73783 17.53876 9792 ft 301 kts 183°
2026-04-24 21:27 48.71714 17.53897 9326 ft 295 kts 183°
2026-04-24 21:27 48.69652 17.53939 8975 ft 297 kts 182°
2026-04-24 21:27 48.67572 17.53973 8586 ft 301 kts 183°
2026-04-24 21:28 48.65475 17.54006 8189 ft 302 kts 183°
2026-04-24 21:28 48.63378 17.54340 7772 ft 306 kts 169°
2026-04-24 21:28 48.61404 17.55477 7518 ft 298 kts 155°
2026-04-24 21:28 48.59728 17.57190 7514 ft 287 kts 141°
2026-04-24 21:29 48.58328 17.59296 7515 ft 281 kts 135°
2026-04-24 21:29 48.56973 17.61351 7517 ft 278 kts 136°
2026-04-24 21:29 48.55441 17.63091 7525 ft 275 kts 154°
2026-04-24 21:29 48.53678 17.64175 7376 ft 277 kts 165°
2026-04-24 21:30 48.51805 17.65132 6892 ft 289 kts 165°
2026-04-24 21:30 48.49887 17.66129 6409 ft 294 kts 165°
2026-04-24 21:30 48.47955 17.67170 5898 ft 295 kts 164°
2026-04-24 21:30 48.46024 17.68208 5530 ft 290 kts 164°
2026-04-24 21:31 48.44162 17.69202 5522 ft 279 kts 164°
2026-04-24 21:31 48.42353 17.70172 5518 ft 273 kts 164°
2026-04-24 21:31 48.40566 17.71110 5513 ft 271 kts 165°
2026-04-24 21:31 48.38791 17.72039 5514 ft 269 kts 165°
2026-04-24 21:32 48.37025 17.72969 5514 ft 268 kts 165°
2026-04-24 21:32 48.35284 17.73885 5429 ft 271 kts 165°
2026-04-24 21:32 48.33457 17.74830 4941 ft 283 kts 165°
2026-04-24 21:32 48.31567 17.75804 4358 ft 290 kts 163°
2026-04-24 21:33 48.29625 17.76598 3784 ft 287 kts 176°
2026-04-24 21:33 48.28294 17.76658 3399 ft 281 kts 186°
2026-04-24 21:33 48.25827 17.75869 3029 ft 263 kts 205°
2026-04-24 21:33 48.24250 17.74642 3032 ft 249 kts 219°
2026-04-24 21:34 48.22949 17.72992 3031 ft 242 kts 230°
2026-04-24 21:34 48.21752 17.71236 3027 ft 240 kts 229°
2026-04-24 21:34 48.20562 17.69450 2816 ft 245 kts 230°
2026-04-24 21:34 48.19338 17.67626 2567 ft 250 kts 229°
2026-04-24 21:35 48.18079 17.65813 2536 ft 253 kts 228°
2026-04-24 21:35 48.16807 17.63973 2537 ft 255 kts 229°
2026-04-24 21:35 48.15550 17.62142 2537 ft 256 kts 228°
2026-04-24 21:35 48.14269 17.60289 2538 ft 256 kts 228°
2026-04-24 21:36 48.12994 17.58416 2539 ft 256 kts 229°
2026-04-24 21:36 48.11759 17.56499 2542 ft 256 kts 231°
2026-04-24 21:36 48.10557 17.54534 2540 ft 255 kts 232°
2026-04-24 21:36 48.09382 17.52493 2316 ft 262 kts 234°
2026-04-24 21:37 48.08230 17.50352 2075 ft 265 kts 236°
2026-04-24 21:37 48.07128 17.48176 2047 ft 260 kts 237°
2026-04-24 21:37 48.06086 17.45999 2045 ft 256 kts 238°
2026-04-24 21:37 48.05090 17.43805 2046 ft 255 kts 240°
2026-04-24 21:38 48.04134 17.41580 2042 ft 254 kts 241°
2026-04-24 21:38 48.03359 17.39498 2036 ft 205 kts 256°
2026-04-24 21:38 48.03377 17.37653 2032 ft 159 kts 298°
2026-04-24 21:38 48.04103 17.36703 2036 ft 134 kts 348°
2026-04-24 21:39 48.05011 17.36652 2034 ft 128 kts 359°
2026-04-24 21:39 48.05880 17.36625 2040 ft 127 kts 357°
2026-04-24 21:39 48.06767 17.36389 2042 ft 132 kts 342°
2026-04-24 21:39 48.07580 17.35732 2038 ft 136 kts 322°
2026-04-24 21:40 48.08275 17.34766 2044 ft 137 kts 320°
2026-04-24 21:40 48.08955 17.33773 2046 ft 132 kts 319°
2026-04-24 21:40 48.09527 17.32897 2045 ft 109 kts 317°
2026-04-24 21:40 48.10038 17.32102 2040 ft 97 kts 319°
2026-04-24 21:41 48.10446 17.31459 2008 ft 84 kts 318°
2026-04-24 21:41 48.10868 17.30812 1898 ft 90 kts 318°
2026-04-24 21:41 48.11309 17.30129 1773 ft 92 kts 318°
2026-04-24 21:41 48.11755 17.29439 1646 ft 93 kts 317°
2026-04-24 21:42 48.12204 17.28741 1515 ft 93 kts 317°
2026-04-24 21:42 48.12650 17.28050 1388 ft 94 kts 316°
2026-04-24 21:42 48.13106 17.27342 1255 ft 95 kts 315°
2026-04-24 21:42 48.13568 17.26627 1125 ft 96 kts 315°
2026-04-24 21:43 48.14034 17.25904 993 ft 97 kts 314°
2026-04-24 21:43 48.14503 17.25176 861 ft 97 kts 314°
2026-04-24 21:43 48.14974 17.24445 728 ft 97 kts 314°
2026-04-24 21:43 48.15442 17.23710 597 ft 97 kts 314°
2026-04-24 21:44 48.15902 17.23000 471 ft 86 kts 315°
2026-04-24 21:44 48.16253 17.22446 431 ft 61 kts 314°
2026-04-24 21:44 48.16526 17.22020 435 ft 54 kts 310°
2026-04-24 21:44 48.16672 17.21732 436 ft 51 kts 296°
2026-04-24 21:45 48.16855 17.21140 437 ft 46 kts 313°
2026-04-24 21:45 48.17072 17.20802 437 ft 44 kts 313°
2026-04-24 21:45 48.17179 17.20473 437 ft 25 kts 277°
2026-04-24 21:45 48.17187 17.20418 437 ft 0 kts 301°